Location: Quaker Farms
(41.4276°N, 73.1557°W)
Time: 01:18:16
(UTC+00:00)

Altair - Pass Details

Date: 16 June 2021
Orbit: 1501 x 1682 km, 47.2° (Epoch: 23 July)

Event Time Altitude Azimuth Distance (km) Brightness Sun altitude
Rises 16:46:59 0° 193° (SSW) 4,648 10.3 71.9°
Reaches altitude 10° 16:50:35 10° 181° (S) 3,689 9.9 71.9°
Maximum altitude 16:57:55 27° 129° (SE) 2,657 9.4 71.9°
Drops below altitude 10° 17:05:27 10° 76° (ENE) 3,809 9.6 71.8°
Sets 17:09:13 0° 66° (ENE) 4,827 10.0 71.6°
